Regional Weather Roundup
Issued by NWS Wakefield, VA

Home | Current Version | Previous Version | Text Only | Print | Product List | Glossary Off
Versions: 1 2 3 4 5 6 7 8 9 10 11 12 13 14 15 16 17 18 19 20 21 22 23 24 25 26 27 28 29 30 31 32 33 34 35 36 37 38 39 40 41 42 43 44 45 46 47 48 49 50

599
ASUS41 KAKQ 121515
RWRAKQ

REGIONAL WEATHER ROUNDUP
NATIONAL WEATHER SERVICE WAKEFIELD VA
1000 AM EST TUE DEC 12 2017

Note: "fair" indicates few or no clouds below 12,000 feet with no
significant weather and/or obstructions to visibility. * = Denotes
station may not report precipitation (e.g., rain,snow,etc.),
thunder or fog.

VAZ042-051-052>054-056-121600-
NORTHERN VIRGINIA

CITY           SKY/WX    TMP DP  RH WIND       PRES   REMARKS
WASH NATIONAL  CLOUDY    44  32  62 SW5       29.60F
DULLES         CLOUDY    39  32  76 CALM      29.59F
FORT BELVOIR   CLOUDY    45  32  61 CALM      29.61S
QUANTICO       CLOUDY    44  34  67 N5        29.62R
FREDERICKSBRG* CLOUDY    44  35  69 W7        29.59F
STAFFORD*      CLOUDY    42  33  69 NW6       29.64S
WARRENTON      CLOUDY    41  29  63 CALM      29.59F
CULPEPER*      CLOUDY    40  31  70 CALM      29.61S
MANASSAS*      CLOUDY    40  32  73 SW3       29.61F
LEESBURG*      CLOUDY    39  34  81 SW5       29.59F
WINCHESTER     CLOUDY    43  28  56 W16       29.58S
FRONT ROYAL*   CLOUDY    45  28  53 SW7       29.57F
LURAY*         CLOUDY    45  30  57 W7        29.59S
$$

VAZ048-049-060>072-079>083-121600-
CENTRAL AND SOUTH CENTRAL VIRGINIA

CITY           SKY/WX    TMP DP  RH WIND       PRES   REMARKS
RICHMOND       CLOUDY    43  34  70 SW8       29.62F
CHESTERFIELD*  NOT AVBL
PETERSBURG*    MOSUNNY   41  34  75 S6        29.65S
HANOVER        CLOUDY    44  34  67 SW5       29.63F
TAPPAHANNOCK*    N/A    N/A N/A N/A MISG        N/A
QUINTON*       FAIR      42  34  73 SW3       29.62F
CHARLOTTSVILLE CLOUDY    42  31  64 W5        29.60S
GORDONSVILLE*  CLOUDY    40  32  75 SW5       29.60S
ORANGE*        CLOUDY    37  32  81 SW5       29.60S
LOUISA*        CLOUDY    41  32  70 SW5       29.64F
BUMPASS*       FAIR      41  32  70 SW8       29.61S
FARMVILLE*     PTSUNNY   44  37  74 SW6       29.63S
CREWE*         FAIR      42  34  72 W3        29.63S
FORT PICKETT*  NOT AVBL
CHASE CITY*    FAIR      41  36  81 CALM      29.65F
CLARKSVILLE*   FAIR      41  34  75 SW6       29.66S
SOUTH HILL*    MOSUNNY   42  36  81 SW7       29.71S
LAWRENCEVILLE* FAIR      42  35  75 SW7       29.65F
EMPORIA*       MOSUNNY   41  34  75 S6        29.68S
$$

VAZ088>098-121600-
SOUTHEAST VIRGINIA

CITY           SKY/WX    TMP DP  RH WIND       PRES   REMARKS
NORFOLK        MOSUNNY   49  36  61 SW17G23   29.64F
VIRGINIA BEACH PTSUNNY   50  35  56 SW16      29.64F
NORFOLK NAVAL  CLOUDY    49  36  61 SW14G23   29.65F
WEST POINT*    CLOUDY   N/A N/A N/A SW5       29.64F
SALUDA*        FAIR      44  35  70 CALM      29.62S
NEWPORT NEWS   MOSUNNY   45  35  68 SW12      29.63F
LANGLEY AFB    MOSUNNY   46  36  67 SW20      29.63F
FORT EUSTIS    CLOUDY    45  36  70 S6        29.61F
WILLIAMSBURG*  CLOUDY    45  36  70 CALM      29.64F
HR EXEC AP*    FAIR      49  37  63 SW14      29.66F
FRANKLIN*      PTSUNNY   45  36  69 SW8       29.67F
US460-WAKEFLD  CLOUDY    44  36  73 VRB6      29.65F
$$

VAZ020-022-025-037-045-121600-
WEST CENTRAL AND SOUTHWEST VIRGINIA

CITY           SKY/WX    TMP DP  RH WIND       PRES   REMARKS
STAUNTON*      CLOUDY    42  29  59 W3        29.62F
WAYNESBORO*    CLOUDY    43  27  54 W7        29.61S
HOT SPRINGS VA CLOUDY    32  24  72 W21G29    29.56S WCI  20
LYNCHBURG      CLOUDY    44  30  57 W3        29.64S
DANVILLE       CLOUDY    39  34  82 W6        29.67F
SOUTH BOSTON*  PTSUNNY   44  33  66 SW6       29.66F
MARTINSVILLE   PTSUNNY   40  32  70 CALM      29.71S
ROANOKE        CLOUDY    45  27  49 W17G25    29.68S
BLACKSBURG     CLOUDY    40  28  62 NW12      29.69S
DUBLIN*        CLOUDY    41  29  62 W16G22    29.70S
MARION*        CLOUDY    38  28  69 W13G20    29.72S
HILLSVILLE*    CLOUDY    37  27  68 NW16G28   29.66S
RICHLANDS*     DRIZZLE   34  30  86 W7G24     29.74R
WISE*          FLURRIES  34  32  93 W8G17     29.77S
ABINGDON*      CLOUDY    40  31  71 W13G20    29.77S
$$

MDZ021>025-VAZ099-100-121600-
SOUTHERN MARYLAND AND THE DELMARVA PENINSULA

CITY           SKY/WX    TMP DP  RH WIND       PRES   REMARKS
PATUXENT RIVER CLOUDY    44  34  67 SW14      29.59F
BAY BRIDGE APT CLOUDY    43  32  65 W6        29.60F
LEONARDTOWN    CLOUDY    43  34  70 SW8       29.60F
DOVER          PTSUNNY   46  39  79 SW10      29.58S
GEORGETOWN     MOSUNNY   45  35  68 SW9       29.59F
EASTON         CLOUDY    46  34  61 W8        29.64R
CAMBRIDGE      SUNNY     45  36  70 VRB7G14   29.60S
SALISBURY      MOSUNNY   43  37  79 SW9       29.59F
OCEAN CITY     CLOUDY    48  39  71 SW13      29.60F
WALLOPS ISLAND CLOUDY    48  37  65 SW10      29.61F
ACCOMACK*      CLOUDY    47  37  67 SW15      29.62S
$$

NCZ012>017-030>032-121600-
NORTH CENTRAL AND EASTERN NORTH CAROLINA

CITY           SKY/WX    TMP DP  RH WIND       PRES   REMARKS
ROANOKE RAPIDS FAIR      43  36  75 SW12      29.68F
RALEIGH        PTSUNNY   43  36  76 SW9       29.70S
ELIZABETH CITY MOSUNNY   49  42  77 SW14      29.68F
AHOSKIE*       CLOUDY    47  38  69 SW6       29.68F
EDENTON*       MOSUNNY   49  40  71 SW9       29.71F
CURRITUCK*     MOSUNNY   48  39  71 SW17      29.68F
KILL DEVIL HLS MOSUNNY   50  41  71 SW7       29.68F
MANTEO         MOSUNNY   51  42  71 SW14      29.69F
CAPE HATTERAS  MOSUNNY   61  46  57 SW21G31   29.72F
TARBORO*       NOT AVBL
GOLDSBORO      MOSUNNY   50  38  63 SW12      29.70F
WASHINGTON     SUNNY     50  39  65 SW13      29.71F
GREENVILLE     SUNNY     50  37  62 SW13G18   29.74F
NEW BERN       SUNNY     51  41  68 SW10      29.74F
WILMINGTON     SUNNY     58  42  55 SW8       29.75F
$$

VAZ048-121600-
ELSEWHERE

CITY           SKY/WX    TMP DP  RH WIND       PRES   REMARKS
HARRISBURG PA  CLOUDY    40  32  73 CALM      29.55F
BALTIMORE      CLOUDY    42  32  67 SW5       29.58F
ANNAPOLIS      CLOUDY    43  34  70 SW3       29.59F
ANDREWS AFB    CLOUDY    42  31  66 SW9       29.58F
PHILADELPHIA   CLOUDY    45  33  63 SW15G22   29.59R
HENDERSON NC   MOSUNNY   39  32  76 SW7       29.67F
GREENSBORO     CLOUDY    42  34  73 W10       29.68F
ROCKY MOUNT    MOSUNNY   47  39  74 SW9       29.70F
$$

VAZ100-121600-
MARINE

STATION/POSITION TIME  TEMP    WIND        PRES    WAVE   SWELL
                       AIR SEA DIR/SP/G            HT/PER HT/PER
                 (UTC) (F)     (DEG/KT/KT) (MB)    (FT/S) (FT/S)
BRANDYWINE LGT   1442   47     220/ 20/ 24 1002.0F
CAPE MAY NJ      1442   48 45  220/ 14/ 19 1001.3F
LEWES DE         1448   47 47  220/ 10/ 15 1001.4F
15NM E FENWICK I 1450   53 53  200/ 21/ 25 1002.0F   5/ 5   2/10
OCEAN-CITY-INLET 1448   47 48  230/ 14/ 18 1002.5F
WACHAPREAGUE VA  1448   47 42  220/  8/ 12 1003.0F
THOMAS POINT MD  1500   43 47  250/  8/  8   N/A
GOOSES REEF MD   1450   44     250/ 10/ 14 1002.8F
COVE POINT MD    1448   43     260/ 13/ 20 1002.3F
SOLOMONS ISLAND  1448   44 48  250/  6/ 10 1001.7F
BISHOPS HEAD MD  1448   45 42  230/ 12/ 16 1002.6F
PINEY POINT MD   1436          280/  5/  6   N/A
POTOMAC MD       1450   45     250/  6/ 10 1001.8F
CAMBRIDGE MD     1442   45 45              1002.7F
LEWISETTA VA     1442   43 44  250/ 11/ 13 1002.2F
RAPPAHANNOCK LGT 1436          220/ 19/ 24 1003.4F
STINGRAY PT      1450   45     260/ 14/ 16 1003.2F
YORK RVR RNG VA  1448   45     240/ 17/ 19 1003.4F
YORKTOWN VA      1436   45 50  240/ 11/ 17 1003.0F
JAMESTOWN VA     1450          250/  6/ 12   N/A
DOMINION TERM VA 1436   45     240/  8/ 10 1004.4F
KIPTOPEKE VA     1436      48  230/ 16/ 18   N/A
CAPE HENRY VA    1436   47     200/ 10/ 15   N/A
WILLOUBY STN VA  1436          230/ 18/ 19 1003.4F
S CRANEY ISL VA  1436   45     230/  6/ 14 1004.0F
CAPE HENRY BUOY  1430      53                N/A     3/ 4
1ST LANDING BUOY 1450   46     240/ 16/ 19 1003.8F
CAPE CHARLES BUO 1451      53                N/A     3/ 4
64NM E OF VA BCH 1450   57 61  220/ 23/ 29 1004.1F   6/ 5   2/ 8
DUCK PIER NC     1436   50 55  210/ 16/ 20 1004.5F
44100 DUCK FRF   1445      55                N/A     3/ 4
44056 DUCK FRF   1500      55                N/A     2/ 9
OREGON INLET NC  1436   51 46  200/ 17/ 19 1005.6F
HATTERAS NC      1436   61 55  230/ 17/ 25 1006.6F
DIAMOND SHLS NC  1450   64 74  230/ 25/ 35 1007.1F   7/ 6   2/11
CAPE LOOKOUT NC  1400          220/ 15/ 19 1008.5F
$$




USA.gov is the U.S. government's official web portal to all federal, state and local government web resources and services.